Billings, MT

6:50 AM MST on December 16, 2017 (GMT -0700)
Billings Logan International

Weather History for KBIL - June, 2013

Change the Weather History Date:

Saturday, June 15, 2013

  Actual Average Record
Temperature  
Mean Temperature 63 °F 64 °F  
Max Temperature 78 °F 77 °F 98 °F (1987)
Min Temperature 47 °F 52 °F 40 °F (1991)
Degree Days  
Heating Degree Days 2 3  
Month to date heating degree days 62 67  
Since 1 June heating degree days 62 67  
Since 1 July heating degree days 6409 6753  
Cooling Degree Days 0 2  
Month to date cooling degree days 16 25  
Year to date cooling degree days 43 42  
Since 1 June cooling degree days 16 25  
Growing Degree Days 13 (Base 50)    
Moisture  
Dew Point 37 °F    
Average Humidity 44    
Maximum Humidity 66    
Minimum Humidity 21    
Precipitation  
Precipitation 0.00 in 0.07 in 1.05 in (1992)
Month to date precipitation 0.58 1.15  
Year to date precipitation 7.02 7.01  
Snow  
Snow 0.00 in 0.00 in T in (1995)
Month to date snowfall 0.0 0.0  
Since 1 June snowfall 0.0 0.0  
Since 1 July snowfall 40.4 55.0  
Snow Depth 0.00 in    
Sea Level Pressure  
Sea Level Pressure 29.98 in    
Wind  
Wind Speed 7 mph (SW)    
Max Wind Speed 16 mph    
Max Gust Speed 20 mph    
Visibility 10 miles    
Events      
T = Trace of Precipitation, MM = Missing Value Source: NWS Daily Summary

Daily Weather History Graph

Daily Weather History Graph

Search for Another Location

Airport or City:

Trip Planner

Search our weather history database for the weather conditions in past years. The results will help you decide how hot, cold, wet, or windy it might be!

Date:

Astronomy

Jun. 15, 2013 Rise Set
Actual Time 5:23 AM MDT 9:06 PM MDT
Civil Twilight 4:45 AM MDT 9:44 PM MDT
Nautical Twilight 3:53 AM MDT 10:35 PM MDT
Astronomical Twilight 2:43 AM MDT 11:46 PM MDT
Moon 12:20 PM MDT (6/15) 12:25 AM MDT (6/15)
Length of Visible Light 16h 59m
Length of Day
15h 42m
Waxing Crescent, 40% of the Moon is Illuminated
Jun 15
Waxing Crescent
Jun 16
First Quarter
Jun 23
Full
Jun 29
Last Quarter
Jul 8
New

Hourly Weather History & Observations

Time (MDT) Temp. Dew Point Humidity Pressure Visibility Wind Dir Wind Speed Gust Speed Precip Events Conditions
12:53 AM 55.0 °F 35.1 °F 47% 30.01 in 10.0 mi WSW 11.5 mph - N/A   Clear
1:53 AM 50.0 °F 37.0 °F 61% 30.03 in 10.0 mi NNW 4.6 mph - N/A   Clear
2:53 AM 52.0 °F 37.0 °F 57% 30.02 in 10.0 mi SW 11.5 mph - N/A   Clear
3:53 AM 48.9 °F 36.0 °F 61% 30.04 in 10.0 mi NNW 8.1 mph - N/A   Clear
4:53 AM 48.9 °F 37.0 °F 64% 30.05 in 10.0 mi WSW 3.5 mph - N/A   Partly Cloudy
5:53 AM 48.9 °F 37.0 °F 64% 30.05 in 10.0 mi SW 6.9 mph - N/A   Partly Cloudy
6:53 AM 48.9 °F 37.0 °F 64% 30.07 in 10.0 mi SSW 9.2 mph - N/A   Clear
7:53 AM 53.1 °F 37.9 °F 57% 30.06 in 10.0 mi SSW 8.1 mph - N/A   Clear
8:53 AM 55.9 °F 37.9 °F 51% 30.05 in 10.0 mi SW 9.2 mph - N/A   Clear
9:53 AM 60.1 °F 39.9 °F 47% 30.04 in 10.0 mi WSW 6.9 mph - N/A   Clear
10:53 AM 64.9 °F 39.9 °F 40% 30.01 in 10.0 mi WSW 8.1 mph - N/A   Clear
11:53 AM 68.0 °F 37.0 °F 32% 30.01 in 10.0 mi SW 11.5 mph - N/A   Partly Cloudy
12:53 PM 70.0 °F 36.0 °F 29% 29.99 in 10.0 mi SSW 6.9 mph 18.4 mph N/A   Partly Cloudy
1:53 PM 72.0 °F 34.0 °F 25% 29.97 in 10.0 mi South 8.1 mph - N/A   Partly Cloudy
2:53 PM 73.0 °F 33.1 °F 23% 29.95 in 10.0 mi WSW 6.9 mph - N/A   Partly Cloudy
3:53 PM 75.9 °F 33.1 °F 21% 29.93 in 10.0 mi Variable 3.5 mph - N/A   Partly Cloudy
4:53 PM 75.9 °F 33.1 °F 21% 29.91 in 10.0 mi SW 5.8 mph - N/A   Clear
5:53 PM 75.9 °F 35.1 °F 23% 29.90 in 10.0 mi South 8.1 mph - N/A   Clear
6:53 PM 75.9 °F 35.1 °F 23% 29.90 in 10.0 mi Variable 5.8 mph - N/A   Clear
7:53 PM 75.0 °F 36.0 °F 24% 29.91 in 10.0 mi WSW 3.5 mph - N/A   Clear
8:53 PM 71.1 °F 37.9 °F 30% 29.92 in 10.0 mi Calm Calm - N/A   Clear
9:53 PM 69.1 °F 36.0 °F 30% 29.94 in 10.0 mi SE 4.6 mph - N/A   Clear
10:53 PM 62.1 °F 39.9 °F 44% 29.96 in 10.0 mi NNE 6.9 mph - N/A   Clear
11:53 PM 63.0 °F 39.9 °F 43% 29.95 in 10.0 mi North 3.5 mph - N/A   Clear